This is the latest recevied weather packets stored in our database for station/object AE5EW. If no packets are shown the sender has not sent any weather packets the latest 10 day(s).
| Time | Temp. | Humidity | Pressure | Rain* | Wind** | Luminosity | Snow |
|---|---|---|---|---|---|---|---|
| 1787420244 | 32.22° C | 68% | 1016.9 hPa | 0 mm | - | - | - |
| 1787419940 | 32.78° C | 68% | 1016.8 hPa | 0 mm | - | - | - |
| 1787419636 | 32.78° C | 72% | 1016.8 hPa | 0 mm | - | - | - |
| 1787419336 | 33.33° C | 67% | 1016.8 hPa | 0 mm | - | - | - |
| 1787419033 | 32.78° C | 68% | 1016.9 hPa | 0 mm | - | - | - |
| 1787418732 | 32.78° C | 68% | 1016.9 hPa | 0 mm | - | - | - |
| 1787418429 | 31.67° C | 72% | 1017.1 hPa | 0 mm | - | - | - |
| 1787418125 | 31.67° C | 70% | 1016.9 hPa | 0 mm | - | - | - |
| 1787417820 | 31.67° C | 70% | 1017.2 hPa | 0 mm | - | - | - |
| 1787417516 | 31.11° C | 70% | 1017.3 hPa | 0 mm | - | - | - |
| 1787417211 | 31.67° C | 73% | 1017.1 hPa | 0 mm | - | - | - |
| 1787416907 | 31.67° C | 70% | 1016.9 hPa | 0 mm | - | - | - |
| 1787416602 | 32.22° C | 68% | 1017.2 hPa | 0 mm | - | - | - |
| 1787416298 | 32.22° C | 69% | 1017.3 hPa | 0 mm | - | - | - |
| 1787415997 | 31.67° C | 70% | 1017.2 hPa | 0 mm | - | - | - |
| 1787415693 | 31.67° C | 69% | 1017.3 hPa | 0 mm | - | - | - |
| 1787415393 | 31.11° C | 71% | 1017.4 hPa | 0 mm | - | - | - |
| 1787415088 | 31.11° C | 71% | 1017.3 hPa | 0 mm | - | - | - |
| 1787414784 | 31.11° C | 70% | 1017.5 hPa | 0 mm | - | - | - |
| 1787414480 | 31.67° C | 68% | 1017.5 hPa | 0 mm | - | - | - |
| 1787414178 | 31.11° C | 69% | 1017.4 hPa | 0 mm | - | - | - |
| 1787413877 | 32.22° C | 71% | 1017.5 hPa | 0 mm | - | - | - |
| 1787413573 | 31.11° C | 69% | 1017.4 hPa | 0 mm | - | - | - |
| 1787413272 | 31.11° C | 71% | 1017.6 hPa | 0 mm | - | - | - |
| 1787412968 | 30.56° C | 71% | 1017.5 hPa | 0 mm | - | - | - |
* Rain latest hour (hover to see other rain measurements)
** Current wind speed in m/s (hover to see current wind gust speed)